Bangor, ME

12:12 PM EST on December 11, 2019 (GMT -0500)
Bangor International

Weather History for KBGR - August, 2019

Change the Weather History Date:

Saturday, August 10, 2019

  Actual Average Record
Temperature  
Mean Temperature 65 °F 68 °F  
Max Temperature 73 °F 79 °F 95 °F (1949)
Min Temperature 56 °F 57 °F 44 °F (1940)
Degree Days  
Heating Degree Days 0 1  
Month to date heating degree days 0 10  
Since 1 June heating degree days 90 140  
Since 1 July heating degree days 0 33  
Cooling Degree Days 0 4  
Month to date cooling degree days 37 40  
Year to date cooling degree days 263 230  
Since 1 June cooling degree days 263 224  
Growing Degree Days 14 (Base 50)    
Moisture  
Dew Point 56 °F    
Average Humidity 79    
Maximum Humidity 100    
Minimum Humidity 57    
Precipitation  
Precipitation 0.01 in 0.11 in 1.62 in (1996)
Month to date precipitation 3.78 1.08  
Year to date precipitation 32.45 24.35  
Snow  
Snow 0.00 in 0.00 in 0.00 in (2002)
Month to date snowfall 0.0 0.0  
Since 1 June snowfall 0.0 0.0  
Since 1 July snowfall 0.0 0.0  
Snow Depth 0.00 in    
Sea Level Pressure  
Sea Level Pressure 29.67 in    
Wind  
Wind Speed 4 mph (WSW)    
Max Wind Speed 22 mph    
Max Gust Speed 27 mph    
Visibility 8 miles    
Events Fog , Rain    
T = Trace of Precipitation, MM = Missing Value Source: NWS Daily Summary

Daily Weather History Graph

Daily Weather History Graph

Search for Another Location

Airport or City:

Astronomy

Aug. 10, 2019 Rise Set
Actual Time 5:31 AM EDT 7:49 PM EDT
Civil Twilight 4:58 AM EDT 8:21 PM EDT
Nautical Twilight 4:18 AM EDT 9:01 PM EDT
Astronomical Twilight 3:33 AM EDT 9:46 PM EDT
Moon 4:33 PM EDT (8/10) 1:01 AM EDT (8/10)
Length of Visible Light 15h 22m
Length of Day
14h 18m
Waxing Gibbous, 79% of the Moon is Illuminated
Aug 10
Waxing Gibbous
Aug 15
Full
Aug 23
Last Quarter
Aug 30
New
Sep 5
First Quarter

Hourly Weather History & Observations

Time (EDT) Temp. Dew Point Humidity Pressure Visibility Wind Dir Wind Speed Gust Speed Precip Events Conditions
12:53 AM 61.0 °F 60.1 °F 97% 29.66 in 10.0 mi Calm Calm - 0.01 in   Mostly Cloudy
1:53 AM 57.9 °F 57.9 °F 100% 29.65 in 6.0 mi South 3.5 mph - N/A Fog Patches of Fog
2:53 AM 57.0 °F 57.0 °F 100% 29.65 in 10.0 mi Calm Calm - N/A Fog Shallow Fog
3:40 AM 57.0 °F 57.0 °F 100% 29.65 in 0.5 mi Calm Calm - N/A Fog Fog
3:51 AM 57.2 °F 57.2 °F 100% 29.65 in 0.2 mi SSW 4.6 mph - N/A Fog Fog
3:53 AM 57.9 °F 57.0 °F 97% 29.65 in 0.2 mi SSW 4.6 mph - N/A Fog Fog
4:10 AM 57.9 °F 57.0 °F 97% 29.66 in 0.8 mi SSW 4.6 mph - N/A   Partly Cloudy
4:35 AM 57.0 °F 55.9 °F 96% 29.67 in 10.0 mi Calm Calm - N/A Fog Shallow Fog
4:53 AM 57.0 °F 55.9 °F 96% 29.65 in 10.0 mi South 3.5 mph - N/A Fog Patches of Fog
5:53 AM 57.0 °F 57.0 °F 100% 29.67 in 10.0 mi SSW 4.6 mph - N/A Fog Patches of Fog
6:53 AM 57.9 °F 57.9 °F 100% 29.67 in 10.0 mi Calm Calm - N/A Fog Patches of Fog
7:53 AM 62.1 °F 60.1 °F 93% 29.68 in 10.0 mi West 4.6 mph - N/A   Mostly Cloudy
8:53 AM 63.0 °F 60.1 °F 90% 29.67 in 10.0 mi WSW 5.8 mph - 0.00 in   Mostly Cloudy
9:53 AM 66.0 °F 57.9 °F 75% 29.67 in 10.0 mi West 6.9 mph - N/A   Mostly Cloudy
10:53 AM 70.0 °F 57.9 °F 65% 29.66 in 10.0 mi NNW 8.1 mph - N/A   Mostly Cloudy
11:53 AM 72.0 °F 57.0 °F 59% 29.65 in 10.0 mi West 10.4 mph - N/A   Mostly Cloudy
12:53 PM 70.0 °F 57.0 °F 63% 29.64 in 10.0 mi West 5.8 mph - 0.00 in Rain Light Rain
1:53 PM 66.9 °F 55.0 °F 66% 29.65 in 10.0 mi WNW 8.1 mph - 0.01 in   Mostly Cloudy
2:53 PM 66.9 °F 55.0 °F 66% 29.65 in 10.0 mi WNW 5.8 mph - N/A   Mostly Cloudy
3:53 PM 62.1 °F 57.0 °F 84% 29.65 in 10.0 mi WSW 4.6 mph - 0.00 in Rain Light Rain
4:53 PM 69.1 °F 57.9 °F 68% 29.65 in 10.0 mi NW 10.4 mph - 0.00 in   Mostly Cloudy
5:53 PM 69.1 °F 53.1 °F 57% 29.68 in 10.0 mi WNW 10.4 mph - N/A   Scattered Clouds
6:53 PM 66.9 °F 54.0 °F 63% 29.68 in 10.0 mi West 3.5 mph - N/A   Partly Cloudy
7:53 PM 63.0 °F 51.1 °F 65% 29.72 in 10.0 mi WSW 5.8 mph - N/A   Partly Cloudy
8:53 PM 61.0 °F 51.1 °F 70% 29.74 in 10.0 mi WNW 6.9 mph - N/A   Scattered Clouds
9:53 PM 59.0 °F 51.1 °F 75% 29.75 in 10.0 mi West 5.8 mph - N/A   Scattered Clouds
10:53 PM 57.0 °F 51.1 °F 81% 29.75 in 10.0 mi West 5.8 mph - N/A   Scattered Clouds
11:53 PM 57.0 °F 51.1 °F 81% 29.77 in 10.0 mi West 6.9 mph - N/A   Scattered Clouds